Starlink 34352

operational
NORAD ID: 64257 Int'l Des: 2025-120 Owner: SPXS Country: US Constellation: starlink
LEOCIRCULAR

About Starlink 34352

Description loading...

Live Position

Loading 3D Globe...

Upcoming Passes

Altitude History

Altitude vs Time

uPlot chart will show altitude changes over time

Two-Line Element Set

1 64257U 25120B 25353.79723154 .00026276 00000-0 89556-3 0 9999
2 64257 53.1583 127.8332 0001266 65.4893 294.6239 15.30221434 31630
Epoch: Dec 19, 2025 • Age: 6 hours

Current Status

Altitude 494.3 km
Velocity 7.62 km/s
Sub-Earth Point -53.04°S, 59.58°W
Launch Date Jun 4, 2025
Age 0.5 years
Type internet

Technical Details

Classification Payload
Mass 575.00 kg
Dry Mass 530.00 kg
Total Mass 575.00 kg
Length 0.30 m
Diameter 4.10 m
Span 29.00 m
Shape Box + pan
Manufacturer SPXS
Bus Type Starlink V2MO
Phase Status In Orbit
Owner/State SPXS/US

Large Constellations

Loading constellations...